Location: Liberec
(50.7830°N, 15.0500°E)
Time: 03:44:15
(UTC+02:00)

ISS - Pass Details

Date: 27 May 2021
Orbit: 417 x 422 km, 51.6° (Epoch: 13 June)

Event Time Altitude Azimuth Distance (km) Brightness Sun altitude
Rises 22:14:07 0° 286° (WNW) 2,367 1.0 -9.4°
Reaches altitude 10° 22:16:16 10° 280° (W) 1,502 -0.2 -9.6°
Maximum altitude 22:19:30 46° 206° (SSW) 573 -3.3 -9.9°
Enters shadow 22:22:01 15° 136° (SE) 1,216 -2.1 -10.1°
